Regional Weather Roundup
Issued by NWS Midland/Odessa, TX

Skip options and go directly to product.
Home | Oldest Version | Previous Version | Current Version | All | Text Only | Save Text | Print | Product List | Glossary On

Skip product version selection by date and time.   
873
ASUS44 KMAF 240010
RWRMAF
MIDLAND AREA WEATHER ROUNDUP
NATIONAL WEATHER SERVICE MIDLAND TX
600 PM CST SUN NOV 23 2014

...IN SOUTHWEST TEXAS AND SOUTHEAST NEW MEXICO...

CITY           SKY/WX    TMP DP  RH WIND       PRES   REMARKS
ALPINE         CLEAR     61  24  24 NW10G22   29.90R
ANDREWS        CLOUDY    50  30  45 N22G32    29.80R HAZE
ARTESIA        NOT AVBL
BIG SPRING     MOCLDY    60  32  34 N21       29.76R
CARLSBAD       PTCLDY    60  21  22 N30G41    29.80R
DRYDEN           N/A     74  22  14 W12       29.70R
FORT STOCKTON  CLEAR     66  21  18 NW23G37   29.77R
GUAD PASS      CLEAR     52  19  27 W40G51    29.84R
HOBBS          CLEAR     46  28  49 N28G37    29.84R WCI  37
MARFA          CLEAR     57  25  28 W14G20    29.87R
MIDLAND AIRPK  MOCLDY    62  30  30 N24G36    29.75R
MIDLAND INTL   PTCLDY    64  25  22 N31G39    29.73R
ODESSA         CLEAR     63  21  20 N25G33    29.75R
PECOS          CLEAR     66  25  21 W25G33    29.76R
PRESIDIO       FAIR      71  30  22 W9        29.78R
SEMINOLE       PTCLDY    47  30  52 N18G29    29.83R WCI  39
SNYDER         MOCLDY    55  33  44 N28G36    29.76R
WINK           CLEAR     65  22  19 N24G32    29.74R
$$
...OTHER STATIONS IN TEXAS...

CITY           SKY/WX    TMP DP  RH WIND       PRES   REMARKS
ABILENE        CLEAR     60  36  40 N18G28    29.69R
AMARILLO       CLOUDY    38  33  82 W10       29.81R WCI  31
AUSTIN         PTCLDY    67  45  45 W3        29.57R
BROWNSVILLE    CLEAR     68  56  65 S6        29.65S
CORPUS CHRISTI PTCLDY    73  62  68 SW7       29.63R
DALLAS FTW     PTCLDY    63  43  48 NW25G31   29.54R
DEL RIO        CLEAR     74  39  28 W12       29.63R
EL PASO        PTCLDY    61  18  18 W38G47    29.85R
HOUSTON INT    CLEAR     74  52  46 SW7       29.56R
LUBBOCK        MOCLDY    43  28  55 N15G28    29.83R WCI  36
SAN ANGELO     CLEAR     67  29  24 NW8       29.65R
SAN ANTONIO    PTCLDY    73  44  35 SW7       29.61R
WACO           CLEAR     68  40  35 W9        29.53R
WICHITA FALLS  NOT AVBL
$$
...OTHER LOCATIONS IN NEW MEXICO...

CITY           SKY/WX    TMP DP  RH WIND       PRES   REMARKS
ALAMAGORDO     PTCLDY    54   0  11 MISG      29.88R
ALBUQUERQUE    PTCLDY    42   9  25 NW15G26   29.96R WCI  34
CANNON AFB     MOCLDY    36  31  82 NW9       29.88R WCI  29
CLOVIS         CLOUDY    37  27  65 NW8       29.86R WCI  31
HOLLOMAN AFB   PTCLDY    55  -3   9 N31G38    29.88R
ROSWELL        CLEAR     47  30  51 N28G37    29.85R WCI  38
RUIDOSO        CLEAR     36  14  41 NW14G22   29.92R WCI  27
SANTA FE       PTCLDY    37   9  31 NW14      29.88R WCI  28
TRUTH OR CONSE CLEAR     50   0  12 NW25G32   29.95R
TUCUMCARI        N/A     37  34  89 W9        29.86R WCI  30
$$

USA.gov is the U.S. government's official web portal to all federal, state and local government web resources and services.